Probability
0 0 0 0 0 0 0 0 0 0 0 0 1 2 4 3 1 1 4 14 22 18 10 9 7 4 2 1 0 0 0 0 0 0 0 0 0 0 0 0 0 0 0 0 0 0 0 0 0
0 0 0 0 0 0 0 0 0 0 0 1 2 3 4 3 1 1 6 15 20 16 10 10 10 7 5 3 1 1 0 0 0 0 0 0 0 0 0 0 0 0 0 0 0 0 0 0 0
0 0 0 0 0 0 0 0 0 0 0 1 3 3 5 4 3 3 9 16 19 16 13 13 14 11 7 4 2 2 2 1 1 1 0 0 0 0 0 0 0 0 0 0 0 0 0 0 0
0 0 0 0 0 0 0 1 1 1 0 2 5 8 8 7 6 7 11 14 17 18 17 17 17 16 11 6 4 5 5 3 2 2 2 2 1 0 0 0 0 0 0 0 0 0 0 0 0
0 0 0 0 0 0 0 1 2 2 2 4 11 15 12 8 9 10 10 12 16 19 21 21 22 22 19 12 9 10 11 8 6 5 6 6 3 1 0 0 0 0 0 0 0 0 0 0 0
0 0 0 0 0 0 0 1 3 4 5 9 15 18 13 9 10 10 11 14 19 22 23 24 25 25 24 21 17 17 17 15 12 10 10 9 6 2 0 0 0 0 0 0 0 0 0 0 0
0 0 0 0 0 1 1 1 4 6 8 10 13 15 13 11 10 11 15 20 22 24 23 21 22 22 24 25 25 23 22 21 19 15 13 11 7 2 0 1 0 0 0 0 0 0 0 0 0
0 0 0 0 1 2 2 2 3 7 11 14 16 17 16 13 12 15 21 25 26 25 22 17 16 17 19 23 26 26 25 24 23 19 16 13 9 4 1 2 2 1 1 1 0 0 0 0 0
0 0 0 1 2 3 2 2 4 9 16 24 28 25 19 15 13 17 24 29 30 27 21 17 16 17 16 18 23 26 26 26 24 20 18 16 11 5 3 4 7 6 4 4 2 0 0 0 0
0 0 0 0 1 2 1 3 6 11 18 28 33 28 19 14 15 20 27 34 35 31 25 23 23 21 18 20 24 23 24 25 22 19 19 16 10 7 6 11 14 12 8 6 4 2 0 0 1
0 0 0 0 0 0 1 3 7 13 22 29 31 25 17 14 19 27 34 40 40 36 32 30 27 24 25 28 26 22 23 25 23 22 23 20 16 15 16 19 19 14 9 6 4 3 1 1 1
0 0 0 0 0 1 4 7 11 21 31 33 29 22 17 18 25 34 41 44 42 40 39 36 33 32 35 38 32 24 24 27 28 29 30 30 28 27 26 24 20 14 10 7 6 4 2 2 2
0 0 0 0 0 1 5 10 17 27 33 32 26 21 22 27 33 39 43 45 45 45 44 45 45 46 49 49 42 33 31 33 34 35 36 37 37 34 31 28 22 15 12 12 9 6 5 3 2
0 0 0 1 1 2 4 9 17 26 30 30 26 26 32 38 41 44 46 47 50 52 51 51 53 54 57 57 52 47 44 42 39 38 38 39 38 36 34 32 26 20 17 17 13 10 9 8 5
0 0 0 1 1 1 4 9 16 24 28 30 31 36 43 45 46 49 52 52 54 56 54 51 51 54 58 59 58 56 52 46 42 39 38 37 35 34 33 31 28 25 21 19 17 15 14 12 10
0 0 0 0 0 1 4 12 19 22 24 29 36 42 46 46 45 47 51 52 53 53 53 49 48 52 57 59 57 55 52 46 40 36 34 30 28 28 27 27 27 26 23 20 18 18 18 15 12
0 0 0 0 0 0 4 13 19 18 19 27 35 41 42 40 40 42 45 46 48 48 48 47 47 48 51 52 50 47 45 40 33 29 26 22 21 22 22 24 26 25 22 20 18 19 21 18 16
0 0 0 0 0 0 5 13 16 14 17 23 29 34 35 35 37 40 41 41 43 44 43 43 42 41 41 41 39 36 32 28 24 21 19 17 16 18 20 23 25 23 21 21 19 19 21 22 21
0 0 0 0 0 1 6 11 12 12 15 21 26 30 32 34 36 39 39 36 36 38 38 38 36 34 33 34 33 30 26 21 18 17 15 13 12 13 17 19 20 19 20 21 20 19 20 21 21
0 0 0 0 1 3 6 9 9 10 14 20 28 34 35 36 38 38 35 31 30 30 30 32 32 30 29 30 30 29 26 22 18 16 14 10 8 8 10 14 16 16 17 18 18 18 18 18 17
0 0 0 0 1 3 5 7 6 7 12 20 30 38 40 40 40 37 31 27 25 24 23 25 29 29 27 26 26 27 25 22 17 15 12 9 7 6 7 10 14 15 15 15 15 14 14 14 13
0 0 0 0 1 1 3 4 5 8 13 22 32 38 42 42 39 35 30 24 21 19 19 22 25 27 26 24 23 23 22 18 14 11 9 8 7 6 6 8 11 13 14 12 10 9 10 10 10
0 0 0 0 0 0 1 2 6 12 17 23 31 38 42 44 40 34 28 23 19 16 18 21 22 23 23 21 20 18 16 12 8 7 6 6 6 5 5 7 7 8 8 7 6 6 6 6 6
0 0 0 0 0 0 1 2 8 16 18 21 28 36 43 47 43 34 26 22 18 17 18 19 19 18 18 17 15 13 10 8 6 4 4 4 3 3 3 4 4 3 2 2 3 3 4 4 4
0 0 0 0 0 0 1 3 11 19 19 20 26 35 42 47 43 34 26 21 18 17 16 15 14 14 14 14 12 9 7 6 5 3 2 2 2 1 1 2 2 1 0 0 1 1 2 3 3
0 0 0 0 0 0 1 5 14 20 19 20 26 33 40 44 41 34 26 20 16 15 13 11 11 11 10 10 9 6 4 4 3 2 1 1 1 0 0 0 0 0 0 0 0 0 1 2 2
0 0 0 0 0 0 1 5 12 17 18 20 25 33 39 41 39 33 24 17 13 12 11 10 11 10 7 6 4 3 2 1 1 0 0 0 0 0 0 0 0 0 0 0 0 0 0 1 1
0 0 0 0 0 0 1 3 9 14 17 19 24 32 38 40 37 31 23 16 13 11 9 9 9 9 6 3 2 2 1 1 0 0 0 0 0 0 0 0 0 0 0 0 0 0 0 0 0
0 0 0 0 0 0 1 3 8 13 16 18 23 31 38 39 34 28 22 16 12 10 8 8 7 6 5 3 2 2 2 1 0 0 0 0 0 0 0 0 0 0 0 0 0 0 0 0 0
0 0 0 0 0 0 1 3 9 14 16 19 25 32 38 37 31 26 20 14 10 8 7 7 6 5 4 3 2 1 1 1 0 0 0 0 0 0 0 0 0 0 0 0 0 0 0 0 0
Wind_Speed
10 13 11 9 8 9 14 6 5 9 8 8 8 10 14 13 10 9 9 14 19 17 15 14 13 13 12 13 13 13 12 12 11 11 10 10 9 9 9 9 9 9 9 9 9 9 8 8 7
11 14 10 8 9 11 10 6 9 9 8 7 8 10 14 14 13 11 11 15 18 17 14 14 14 13 13 12 13 13 13 12 11 10 10 9 9 8 8 8 8 8 8 8 8 8 7 7 6
12 16 9 9 13 13 6 7 11 11 8 5 7 9 11 10 11 10 12 15 17 16 15 15 14 13 13 12 13 13 13 12 11 10 10 9 8 8 7 7 7 7 7 7 7 7 6 6 5
9 9 8 10 15 10 2 8 10 9 8 7 9 10 11 8 8 12 14 15 16 16 15 14 13 13 12 12 12 12 12 12 12 10 9 8 8 7 7 7 7 6 6 6 6 6 5 5 4
10 8 11 13 14 6 5 7 7 5 7 8 9 13 12 10 14 15 12 14 15 16 15 14 13 13 12 12 12 12 11 10 10 10 9 8 7 6 6 6 6 6 5 5 5 4 4 3 3
8 9 12 13 10 4 5 6 4 4 5 9 11 12 9 11 12 13 12 12 15 16 16 13 13 13 12 12 11 10 10 9 9 8 8 7 7 6 6 6 5 5 5 4 4 3 3 2 2
11 11 13 14 8 5 5 6 5 4 4 6 7 9 10 12 11 11 11 12 14 16 15 12 12 11 11 11 10 10 9 9 8 8 7 7 7 6 6 6 5 5 4 4 3 3 3 3 3
11 12 16 14 8 7 7 6 4 4 4 7 7 8 10 13 12 12 12 12 13 13 12 11 11 10 10 10 10 9 8 8 8 7 7 7 7 7 7 7 6 6 5 5 4 4 4 4 5
14 12 14 12 5 7 10 8 7 5 9 9 11 11 15 17 15 12 11 11 11 11 9 9 10 9 8 9 10 9 8 7 7 6 6 5 5 6 6 6 8 7 7 6 6 6 6 7 8
11 11 13 4 1 4 10 8 8 7 10 12 14 15 18 15 14 13 11 10 10 10 8 6 8 7 6 7 7 5 5 5 5 5 6 5 4 3 5 7 8 8 7 7 8 8 7 8 6
13 13 6 2 4 2 5 6 6 7 8 11 14 13 14 15 13 11 10 9 9 8 6 6 6 6 4 4 5 3 3 3 4 4 4 3 2 1 3 3 4 5 6 5 5 6 5 5 4
12 9 4 1 3 1 2 4 4 10 12 15 16 12 11 13 12 11 9 9 7 7 6 5 4 4 4 4 3 3 2 2 1 2 2 1 0 0 1 1 2 3 2 2 3 3 4 4 4
10 6 3 2 3 4 3 5 7 14 16 17 15 11 11 12 12 11 10 9 8 6 5 6 3 4 4 3 2 2 2 2 2 2 2 3 1 1 1 1 0 1 0 1 2 2 3 3 3
8 8 7 6 6 6 6 6 7 13 15 15 15 12 11 12 11 10 10 9 8 7 6 6 5 4 4 3 2 2 2 2 2 2 1 2 2 1 1 1 0 1 1 1 1 2 2 1 2
7 7 9 9 9 9 8 6 7 12 14 12 12 11 12 11 11 10 10 8 8 7 6 5 4 4 3 3 2 2 2 2 2 2 3 2 2 2 1 1 1 1 1 1 1 2 2 2 2
9 10 11 11 11 11 10 8 10 11 12 10 10 11 12 11 11 10 10 8 8 7 6 4 4 4 4 3 3 2 2 3 3 2 2 2 2 2 2 1 1 2 2 1 1 1 2 2 2
12 13 13 12 12 11 11 8 10 11 12 11 10 10 11 10 10 9 9 8 8 7 6 5 5 4 4 4 3 3 3 3 3 3 3 2 2 2 2 1 1 2 1 1 2 1 1 2 2
12 13 14 12 13 13 11 9 11 13 12 12 12 10 10 11 10 9 9 8 7 7 6 6 5 5 4 3 3 3 3 3 3 3 3 3 2 2 2 1 2 2 1 1 2 2 2 1 2
10 12 12 10 11 11 10 12 13 15 13 13 13 12 10 11 11 10 9 9 8 6 6 6 6 5 3 2 2 2 2 2 3 3 3 2 3 3 2 2 2 2 1 1 2 2 2 2 1
11 11 9 8 10 7 7 9 10 12 13 12 12 13 13 11 12 10 9 8 7 6 6 6 6 5 4 2 1 1 2 2 2 2 2 2 3 3 2 3 2 3 1 1 2 2 2 2 1
12 10 8 6 7 9 8 8 9 10 10 10 10 12 14 14 12 10 9 8 8 7 6 5 5 5 4 3 2 2 2 2 2 2 2 2 3 3 3 3 3 3 3 2 3 3 3 2 2
10 9 8 7 8 8 10 8 10 10 10 11 11 11 12 14 13 10 9 9 8 7 7 6 5 5 4 3 2 2 2 2 2 2 2 2 2 2 3 3 3 4 3 3 4 3 3 2 2
9 7 9 10 10 10 9 9 7 11 11 11 11 12 12 13 13 11 10 9 8 8 7 6 6 5 4 4 4 3 4 3 2 3 3 2 2 2 3 3 3 3 3 3 4 3 3 2 2
8 8 8 8 9 13 10 9 6 8 10 10 11 13 14 14 13 12 10 10 9 8 7 7 6 6 5 5 5 5 5 4 3 2 2 1 2 3 5 5 4 4 3 3 3 3 3 2 2
9 7 5 6 8 9 7 8 4 6 8 9 11 13 14 14 13 12 11 10 9 8 7 7 6 6 5 6 5 4 4 3 4 3 3 3 3 3 4 5 4 3 3 3 3 2 2 3 3
9 10 8 6 7 7 5 4 3 6 9 9 11 13 14 14 13 12 11 10 9 8 7 7 6 6 5 6 5 4 3 3 3 4 3 4 3 3 3 3 3 3 4 4 3 3 3 3 3
10 11 10 9 10 7 4 3 6 6 10 11 13 13 13 13 12 12 11 9 8 8 7 6 6 6 5 5 4 4 4 4 3 3 3 3 3 3 3 3 3 4 4 3 3 2 3 3 3
10 9 6 7 7 7 5 2 1 3 8 9 10 12 13 13 12 11 10 9 8 7 7 6 6 5 5 4 4 4 4 4 4 4 4 4 4 3 3 3 4 4 4 4 4 2 3 3 3
7 8 8 7 6 6 5 1 2 4 5 8 9 11 13 13 13 11 9 8 8 7 7 6 5 5 5 5 4 4 4 4 4 4 4 4 4 4 4 4 4 4 4 4 4 3 3 4 4
6 8 7 6 6 6 4 2 3 6 7 8 10 12 12 12 12 11 10 8 7 7 7 6 5 5 5 5 4 4 4 4 4 4 4 4 4 4 4 4 4 5 5 5 5 5 5 5 5
Wind_Direction
272 261 252 254 245 240 248 235 114 95 85 74 68 78 77 63 72 98 118 113 111 115 122 123 122 127 131 135 139 138 137 135 132 129 125 119 113 108 104 102 101 102 104 105 104 103 101 97 93
274 261 245 246 249 244 233 197 115 99 88 95 92 89 85 76 80 106 119 115 117 121 126 121 123 125 129 133 137 140 141 140 138 135 131 126 120 115 110 106 104 103 104 106 106 105 103 101 98
266 263 250 240 242 255 254 117 109 113 116 116 99 79 68 79 92 109 121 124 119 120 117 117 122 124 128 132 136 141 144 143 142 141 138 134 129 123 117 112 109 106 106 108 109 108 105 103 101
249 231 238 245 245 242 184 107 114 130 135 139 114 92 80 62 99 119 129 127 123 121 117 119 122 124 128 132 136 138 142 145 146 146 143 140 135 131 129 123 118 114 112 113 112 111 110 110 110
242 243 236 247 248 225 115 103 114 144 141 123 105 97 89 83 103 120 129 125 123 117 117 121 121 123 127 130 135 137 141 143 145 146 146 142 139 139 140 136 131 127 124 122 119 117 116 121 129
228 232 239 244 239 195 124 113 134 152 131 110 112 104 98 108 114 124 125 122 115 115 117 121 120 125 129 132 134 136 139 141 141 144 146 146 146 148 151 149 146 143 139 137 137 139 142 148 166
248 252 252 250 226 178 144 128 155 167 135 116 115 107 119 119 121 120 119 114 113 117 121 130 130 129 128 128 131 133 136 138 140 144 149 154 159 163 167 166 160 159 158 162 168 175 182 195 216
249 273 270 257 230 178 143 134 154 151 120 104 104 116 132 127 127 125 123 118 116 117 124 132 138 138 143 139 136 136 140 145 149 155 163 167 176 182 184 182 174 175 179 188 195 203 211 222 234
246 260 266 257 226 152 143 153 150 111 92 76 79 108 129 133 133 129 123 117 116 117 124 136 139 145 152 147 141 145 150 153 156 167 173 177 195 193 192 193 170 184 192 200 205 213 220 229 234
232 249 258 285 11 140 147 166 162 140 117 96 90 109 124 134 135 133 130 124 124 124 132 137 132 141 152 140 137 153 163 160 181 178 178 197 219 206 183 162 175 191 203 211 215 222 229 234 234
231 247 273 357 37 65 134 154 170 166 120 113 111 119 132 137 133 129 125 121 122 126 120 114 121 128 125 130 148 152 159 156 198 189 186 203 209 199 134 155 175 197 210 216 206 219 235 236 245
238 249 256 184 93 139 161 141 115 80 97 110 120 134 141 136 130 125 118 114 113 112 109 103 105 110 117 115 129 130 136 149 180 175 192 188 209 297 126 148 175 204 204 213 208 218 237 252 259
234 240 238 188 151 178 148 115 114 97 104 109 121 142 151 133 122 113 107 102 102 95 88 85 76 73 75 82 101 126 119 127 117 67 4 359 356 353 32 63 264 275 251 211 244 244 249 268 281
223 216 210 201 176 178 162 151 134 111 113 123 139 150 130 116 113 110 105 97 96 89 79 77 69 61 66 70 72 62 77 88 97 97 68 19 358 335 347 265 272 287 301 279 270 279 273 281 298
235 215 203 201 192 186 175 171 138 120 121 131 136 127 114 107 104 99 98 95 92 89 86 91 96 73 67 69 66 76 70 80 83 100 86 67 16 331 301 259 235 306 281 274 285 309 309 289 286
219 220 214 201 195 192 194 183 145 141 136 141 134 125 115 106 103 99 97 95 92 89 85 76 86 94 84 74 64 64 69 78 89 84 84 66 19 327 310 311 14 312 295 310 293 303 307 309 309
212 215 215 197 193 203 206 176 155 157 153 152 139 133 129 122 113 107 105 101 97 97 93 81 73 77 80 81 79 74 70 70 74 67 59 33 12 341 328 1 345 305 315 339 322 343 309 299 298
214 215 213 197 186 210 204 163 163 173 167 160 149 149 146 136 124 118 114 105 97 93 91 89 82 73 77 82 84 76 73 73 69 65 56 30 360 351 341 24 351 329 348 340 335 322 303 288 292
252 240 221 203 177 204 197 172 176 174 176 168 164 157 145 133 124 122 116 110 103 94 91 87 81 68 61 68 79 85 95 90 78 71 56 33 9 0 358 360 355 340 349 336 335 312 302 285 289
254 250 229 196 164 191 207 188 183 181 178 175 168 155 141 135 128 125 120 114 107 98 90 85 81 74 63 67 84 109 97 86 91 77 61 30 21 10 10 9 356 338 334 352 341 331 320 303 301
250 249 236 207 182 194 217 214 201 192 179 170 163 153 145 143 136 133 128 118 109 100 89 80 74 71 53 49 82 92 98 91 84 97 81 43 29 28 13 13 0 348 355 8 5 357 341 323 314
245 251 249 234 221 216 215 229 212 198 184 178 163 152 144 138 137 139 132 122 114 107 98 89 82 75 59 49 56 81 88 80 60 60 67 55 36 31 28 22 17 8 11 14 1 3 338 331 326
249 249 247 240 242 246 228 245 218 184 191 186 170 155 145 138 140 140 132 124 116 110 102 94 85 71 57 48 47 53 65 68 62 57 59 53 50 40 32 31 24 19 22 18 0 359 352 348 337
249 252 252 254 252 247 239 238 230 184 191 189 174 157 147 142 140 136 128 122 114 107 100 94 88 74 60 55 54 57 67 64 59 46 51 43 56 42 31 36 25 20 16 9 0 356 352 355 350
233 242 238 244 249 255 262 249 193 159 158 175 173 158 146 141 137 134 130 125 116 107 101 96 92 81 70 66 62 61 60 66 61 35 35 33 42 40 21 24 20 15 3 360 1 3 357 1 355
232 243 239 242 260 270 251 246 126 127 135 139 149 143 140 139 136 135 132 126 120 115 108 104 97 88 81 76 66 56 51 55 51 35 34 35 34 39 20 19 20 14 10 11 7 6 10 7 357
240 241 250 267 275 271 238 157 108 110 119 128 133 134 135 136 133 128 126 124 120 115 112 108 101 93 86 83 79 63 54 56 53 41 40 40 28 37 26 20 18 18 15 11 15 22 21 16 15
250 254 261 264 277 277 255 218 131 150 128 131 137 138 137 134 130 127 124 117 112 110 105 101 98 98 93 82 69 72 59 54 52 50 51 41 28 27 26 22 21 21 18 15 18 21 28 31 24
247 253 262 273 279 287 280 141 115 152 147 137 142 139 139 138 134 129 121 116 113 112 114 114 109 100 90 80 69 63 59 52 52 52 50 41 29 26 28 29 31 30 29 24 18 26 32 34 30
252 262 258 267 278 286 296 70 102 131 131 130 127 129 134 129 127 127 125 123 121 118 114 111 110 101 96 92 84 68 64 56 52 51 47 42 34 27 28 34 34 36 36 28 27 31 36 38 34